OBJECT AA, 42849

Orbit data source: Space-Track

You're viewing an Uncataloged Satellite

Recently launched and/or uncataloged satellites may have evolving metadata. Metadata may include but not limited to: Owner, Maufacturer, Bus, Motor, and Mission.

OBJECT AA, 42849 is a satellite in SSO that was launched on Fri, 14 Jul 2017 UTC via a SOYUZ-2-1A launch vehicle from the Tyuratam Missile And Space Complex (TTMTR). Unknown objects in Earth's orbit typically refer to objects detected orbiting the Earth but have not yet been identified or cataloged. These objects could be anything from previously untracked satellites, spent rocket stages, debris from satellite collisions, or even natural meteoroids temporarily captured by Earth's gravity.

Loading next visibility...
Identifier
42849, 2017-042AA
Orbit
SSO
Country
Flag of TBDTBD
Related business
None
Manufacturer
Unknown
Mission
Non-operational Commercial Meteo Radio Occ.
Bus & Motor
Unknown
Mass
Unknown
Launch date (UTC)
2017-07-14 (9 years ago)
Launch vehicle
SOYUZ-2-1A
Launch site
Tyuratam Missile And Space Complex (TTMTR)
Object type
Unknown
Shape & HBR
Box + 2 Pan, 0.3 m
Radar Cross Section
0.079 m², Medium (>0.1 m² and < 1m²)

Expand to show TLE details & history
Last TLE update: 7 hours ago

TLE from 7 hours ago
0 OBJECT AA
1 42849U 17042AA  26038.06124897  .00006415  00000-0  43565-3 0  9999
2 42849  97.4106 208.4800 0011001 181.9380 178.1807 15.06669400467614
Epoch: 2026-02-07T01:28Z
TLE epoch observation values (Epoch: 2026-02-07T01:28:11.911Z)
Latitude
-0.00001°
Longitude
49.24019°
Altitude
557.074 km
Speed
7.579 km/s
True Right ascension
13h 53m 55s
True Declination
0° 00' 00"
Sunlit
Object was in daylight at epoch
Visualization orbit readout
Latitude
Unknown
Longitude
Unknown
Altitude
Unknown
Speed
Unknown
Apparent Right ascension
Unknown
Apparent Declination
Unknown
Sunlit
N/A
Visualization observer readout
Local Sidereal Time
10:17:05
Azimuth
Unknown
Elevation
Unknown
Doppler factor
Unknown
Orbital elements
Apogee altitude
550.984 km
Perigee altitude
535.755 km
Semi-major axis
6,921.507 km
Eccentricity
0.0011
Inclination
97.4106°
RAAN
208.48°
Arg. of periapsis
181.938°
True anomaly
178.1847°
Mean anomaly
178.1807°
Eccentric anomaly
178.1827°
Mean motion
3.76914 °/min
Orbital period
95.51 mins
BSTAR
0.00043565
Loading maneuver chart data...
Computing Atmospheric mass density...

Documentation

Showing up to 5 results
|